Weather History for Whiting Fld NAS, FL

Change the Weather History Date:

Sunday, August 18, 2013

  Actual Average Record
Temperature  
Mean Temperature 74 °F -  
Max Temperature 79 °F 87 °F 99 °F (2011)
Min Temperature 69 °F 70 °F 64 °F (2004)
Cooling Degree Days 8    
Growing Degree Days 24 (Base 50)    
Moisture  
Dew Point 71 °F    
Average Humidity 92    
Maximum Humidity 100    
Minimum Humidity 81    
Precipitation  
Precipitation 1.67 in - - ()
Sea Level Pressure  
Sea Level Pressure 30.03 in    
Wind  
Wind Speed 7 mph (East)    
Max Wind Speed 16 mph    
Max Gust Speed 22 mph    
Visibility 6 miles    
Events Fog , Rain , Thunderstorm    
Averages and records for this station are not official NWS values.
T = Trace of Precipitation, MM = Missing Value Source: NWS Daily Summary

Daily Weather History Graph

Daily Weather History Graph

Search for Another Location

Airport:

Trip Planner

Search our weather history database for the weather conditions in past years. The results will help you decide how hot, cold, wet, or windy it might be!

Date:

Astronomy

Aug. 18, 2013 Rise Set
Actual Time 6:16 AM CDT 7:26 PM CDT
Civil Twilight 5:51 AM CDT 7:51 PM CDT
Nautical Twilight 5:21 AM CDT 8:21 PM CDT
Astronomical Twilight 4:50 AM CDT 8:52 PM CDT
Moon 5:28 PM CDT (8/18) 3:31 AM CDT (8/18)
Length of Visible Light 14h 00m
Length of Day
13h 10m
Waxing Gibbous, 92% of the Moon is Illuminated
Aug 18
Waxing Gibbous
Aug 20
Full
Aug 28
Last Quarter
Sep 5
New
Sep 12
First Quarter

Hourly Weather History & Observations

Time (CDT) Temp. Dew Point Humidity Pressure Visibility Wind Dir Wind Speed Gust Speed Precip Events Conditions
12:22 AM 71.6 °F 69.8 °F 94% 30.02 in 10.0 mi NE 5.8 mph - 0.00 in   Overcast
12:56 AM 71.1 °F 69.1 °F 93% 29.99 in 10.0 mi NE 4.6 mph - 0.00 in Rain Light Rain
1:19 AM 69.8 °F 68.0 °F 94% 30.00 in 5.0 mi East 12.7 mph - 0.02 in Rain Rain
1:32 AM 69.8 °F 68.0 °F 94% 30.01 in 6.0 mi East 10.4 mph 19.6 mph 0.03 in Rain Light Rain
1:56 AM 71.1 °F 69.1 °F 93% 29.98 in 10.0 mi East 9.2 mph - 0.03 in Rain Light Rain
2:33 AM 71.6 °F 69.8 °F 94% 30.01 in 7.0 mi East 9.2 mph - 0.02 in Rain Rain
2:56 AM 71.1 °F 69.1 °F 93% 29.98 in 5.0 mi NE 5.8 mph - 0.06 in Rain Rain
3:06 AM 71.6 °F 69.8 °F 94% 30.03 in 5.0 mi NE 9.2 mph - 0.03 in Rain Rain
3:14 AM 71.6 °F 69.8 °F 94% 30.03 in 5.0 mi ENE 5.8 mph - 0.05 in Rain Rain
3:47 AM 71.6 °F 69.8 °F 94% 30.02 in 6.0 mi NE 5.8 mph - 0.15 in Rain Rain
3:56 AM 71.1 °F 69.1 °F 93% 29.97 in 7.0 mi ENE 8.1 mph - 0.16 in Rain Light Rain
4:12 AM 71.6 °F 69.8 °F 94% 30.02 in 8.0 mi NE 5.8 mph - 0.01 in Rain Light Rain
4:35 AM 71.6 °F 69.8 °F 94% 30.02 in 8.0 mi NE 8.1 mph - 0.02 in Rain Light Rain
4:56 AM 71.1 °F 69.1 °F 93% 29.98 in 7.0 mi ENE 6.9 mph - 0.03 in Rain Rain
5:36 AM 71.6 °F 69.8 °F 94% 30.02 in 6.0 mi ENE 5.8 mph - 0.05 in Rain , Thunderstorm Thunderstorms and Rain
5:51 AM 71.6 °F 69.8 °F 94% 30.03 in 9.0 mi ENE 5.8 mph - 0.05 in Rain Light Rain
5:56 AM 71.1 °F 70.0 °F 96% 29.99 in 10.0 mi SE 3.5 mph - 0.05 in Rain Light Rain
6:28 AM 71.6 °F 69.8 °F 94% 30.03 in 5.0 mi ESE 8.1 mph - 0.06 in Rain Rain
6:53 AM 71.6 °F 69.8 °F 94% 30.03 in 3.0 mi East 8.1 mph - 0.16 in Rain , Thunderstorm Heavy Thunderstorms and Rain
6:56 AM 72.0 °F 70.0 °F 93% 29.99 in 4.0 mi East 9.2 mph - 0.17 in Rain , Thunderstorm Thunderstorms and Rain
7:21 AM 73.4 °F 71.6 °F 94% 30.04 in 5.0 mi East 10.4 mph - 0.05 in Rain , Thunderstorm Thunderstorms and Rain
7:45 AM 73.4 °F 71.6 °F 94% 30.03 in 2.0 mi SE 16.1 mph - 0.12 in Rain Heavy Rain
7:52 AM 73.4 °F 71.6 °F 94% 30.03 in 1.0 mi ESE 13.8 mph - 0.23 in Rain Heavy Rain
7:56 AM 73.0 °F 71.1 °F 93% 29.99 in 1.0 mi SE 13.8 mph 21.9 mph 0.26 in Rain Heavy Rain
8:17 AM 73.4 °F 71.6 °F 94% 30.03 in 3.0 mi ESE 10.4 mph - 0.17 in Rain Rain
8:56 AM 73.9 °F 72.0 °F 93% 30.00 in 8.0 mi ESE 6.9 mph - 0.19 in   Scattered Clouds
9:14 AM 73.4 °F 71.6 °F 94% 30.05 in 7.0 mi East 6.9 mph - N/A Thunderstorm Thunderstorm
9:46 AM 73.4 °F 71.6 °F 94% 30.05 in 8.0 mi East 8.1 mph - N/A Thunderstorm Thunderstorm
9:56 AM 73.9 °F 72.0 °F 93% 30.01 in 8.0 mi East 5.8 mph - N/A Thunderstorm Thunderstorm
10:32 AM 73.4 °F 71.6 °F 94% 30.06 in 8.0 mi East 5.8 mph - N/A   Clear
10:41 AM 75.2 °F 71.6 °F 89% 30.07 in 8.0 mi East 6.9 mph - N/A Thunderstorm Thunderstorm
10:56 AM 75.0 °F 72.0 °F 90% 30.02 in 6.0 mi East 5.8 mph - 0.00 in Rain Light Rain
11:11 AM 75.2 °F 71.6 °F 89% 30.07 in 5.0 mi East 3.5 mph - 0.01 in Rain , Thunderstorm Light Thunderstorms and Rain
11:26 AM 75.2 °F 73.4 °F 94% 30.10 in 1.8 mi South 8.1 mph - 0.07 in Rain Heavy Rain
11:32 AM 73.4 °F 71.6 °F 94% 30.10 in 0.5 mi SSW 13.8 mph 17.3 mph 0.30 in Fog , Rain Heavy Rain
11:40 AM 71.6 °F 68.0 °F 88% 30.08 in 0.5 mi ESE 9.2 mph - 0.46 in Fog , Rain , Thunderstorm Heavy Thunderstorms and Rain
11:51 AM 73.4 °F 69.8 °F 88% 30.07 in 3.0 mi Calm Calm - 0.49 in Rain , Thunderstorm Light Thunderstorms and Rain
11:56 AM 73.9 °F 72.0 °F 93% 30.02 in 9.0 mi NNW 4.6 mph - 0.49 in Rain Light Rain
12:43 PM 73.4 °F 71.6 °F 94% 30.06 in 1.5 mi WNW 4.6 mph - 0.06 in Rain Rain
12:53 PM 73.4 °F 71.6 °F 94% 30.06 in 2.0 mi NNW 6.9 mph - 0.09 in Rain , Thunderstorm Light Rain
12:56 PM 73.9 °F 71.1 °F 91% 30.02 in 4.0 mi NNW 5.8 mph - 0.09 in Rain , Thunderstorm Light Rain
1:13 PM 73.4 °F 71.6 °F 94% 30.07 in 2.5 mi NE 3.5 mph - 0.03 in Rain Heavy Rain
1:20 PM 73.4 °F 71.6 °F 94% 30.07 in 2.5 mi East 8.1 mph - 0.04 in Rain Light Rain
1:27 PM 73.4 °F 71.6 °F 94% 30.08 in 1.8 mi Calm Calm - 0.10 in Rain Heavy Rain
1:33 PM 73.4 °F 71.6 °F 94% 30.08 in 1.8 mi Calm Calm - 0.11 in Rain , Thunderstorm Light Thunderstorms and Rain
1:38 PM 73.4 °F 73.4 °F 100% 30.07 in 3.0 mi NNE 3.5 mph - 0.12 in Rain , Thunderstorm Thunderstorms and Rain
1:56 PM 75.0 °F 73.0 °F 94% 30.01 in 9.0 mi North 3.5 mph - 0.13 in Rain , Thunderstorm Light Thunderstorms and Rain
2:07 PM 73.4 °F 71.6 °F 94% 30.04 in 9.0 mi NNE 3.5 mph - 0.00 in Rain Light Rain
2:20 PM 73.4 °F 73.4 °F 100% 30.03 in 9.0 mi Calm Calm - 0.00 in   Scattered Clouds
2:31 PM 75.2 °F 73.4 °F 94% 30.03 in 9.0 mi Calm Calm - 0.00 in   Mostly Cloudy
2:35 PM 75.2 °F 73.4 °F 94% 30.03 in 9.0 mi North 3.5 mph - 0.00 in Thunderstorm Thunderstorm
2:56 PM 75.0 °F 73.9 °F 96% 29.97 in 10.0 mi NE 3.5 mph - 0.00 in   Mostly Cloudy
3:56 PM 75.9 °F 72.0 °F 87% 30.01 in 10.0 mi SE 4.6 mph - N/A   Mostly Cloudy
4:22 PM 77.0 °F 71.6 °F 83% 30.05 in 10.0 mi East 6.9 mph - N/A   Scattered Clouds
4:56 PM 78.1 °F 72.0 °F 81% 30.00 in 10.0 mi ESE 4.6 mph - N/A   Overcast
5:40 PM 78.8 °F 73.4 °F 83% 30.03 in 10.0 mi East 8.1 mph - N/A   Overcast
5:56 PM 78.1 °F 73.0 °F 84% 29.98 in 10.0 mi East 6.9 mph - N/A   Overcast
6:40 PM 77.0 °F 71.6 °F 83% 30.02 in 7.0 mi ENE 3.5 mph - 0.00 in Rain Rain
6:56 PM 77.0 °F 72.0 °F 84% 29.99 in 10.0 mi ENE 5.8 mph - 0.01 in   Overcast
7:44 PM 75.2 °F 71.6 °F 89% 30.04 in 10.0 mi East 4.6 mph - N/A   Mostly Cloudy
7:56 PM 75.0 °F 72.0 °F 90% 30.00 in 10.0 mi ENE 5.8 mph - N/A   Mostly Cloudy
8:56 PM 73.9 °F 71.1 °F 91% 30.00 in 10.0 mi East 9.2 mph - N/A   Mostly Cloudy
9:56 PM 73.9 °F 70.0 °F 87% 30.01 in 10.0 mi East 8.1 mph - N/A   Mostly Cloudy
10:33 PM 73.4 °F 69.8 °F 88% 30.05 in 10.0 mi East 8.1 mph - N/A   Mostly Cloudy
10:56 PM 73.0 °F 70.0 °F 90% 30.01 in 10.0 mi East 8.1 mph - N/A   Scattered Clouds
11:56 PM 72.0 °F 69.1 °F 91% 30.01 in 10.0 mi ESE 4.6 mph - N/A   Clear